This demonstration page uses our WeatherBlox Daily Observations layout. Learn more.

Left ArrowRight Arrow

Hourly Observations for February 16, 2020

Temp ( °F °C ) Dew Point ( °F °C ) Humidity (%) Winds ( mph kmh ) Pressure ( in mb ) Visibility ( mi km ) Precip ( " mm )
12:53 am 00:53 Cloudy 41 5 21 -6.1 45 45 SW 3 6 30.17 1022 10 16 N/A
1:53 am 01:53 Cloudy 39 3.9 21 -6.1 48 48 WSW 3 6 30.16 1022 10 16 N/A
2:53 am 02:53 Cloudy 38 3.3 25 -3.9 60 60 W 3 6 30.16 1021 10 16 N/A
3:53 am 03:53 Cloudy 36 2.2 26 -3.3 67 67 N N/A 30.15 1021 10 16 N/A
4:53 am 04:53 Cloudy 35 1.7 26 -3.3 70 70 N N/A 30.14 1021 10 16 N/A
5:53 am 05:53 Cloudy 36 2.2 25 -3.9 64 64 ESE 3 6 30.14 1021 10 16 N/A
6:53 am 06:53 Cloudy 37 2.8 25 -3.9 62 62 N N/A 30.14 1021 10 16 N/A
7:53 am 07:53 Cloudy 37 2.8 25 -3.9 62 62 N N/A 30.15 1021 10 16 N/A
8:53 am 08:53 Cloudy 38 3.3 26 -3.3 62 62 N N/A 30.16 1021 10 16 N/A
9:53 am 09:53 Cloudy 40 4.4 26 -3.3 58 58 N N/A 30.15 1021 10 16 N/A
10:53 am 10:53 Cloudy 41 5 26 -3.3 55 55 N N/A 30.14 1021 10 16 N/A
11:53 am 11:53 Cloudy 42 5.6 25 -3.9 51 51 WNW 3 6 30.14 1021 10 16 N/A
12:53 pm 12:53 Cloudy 44 6.7 26 -3.3 49 49 W 3 6 30.13 1020 10 16 N/A
1:53 pm 13:53 Cloudy 46 7.8 27 -2.8 47 47 NW 6 9 30.10 1019 10 16 N/A
2:53 pm 14:53 Cloudy 47 8.3 28 -2.2 48 48 N N/A 30.10 1019 10 16 N/A
3:53 pm 15:53 Mostly Cloudy 49 9.4 31 -0.6 50 50 undefined N/A 30.10 1019 10 16 N/A
4:53 pm 16:53 Sunny 49 9.4 31 -0.6 50 50 NW 7 11 30.11 1020 10 16 N/A
5:53 pm 17:53 Sunny 45 7.2 29 -1.7 54 54 N 7 11 30.13 1020 10 16 N/A
6:53 pm 18:53 Clear 35 1.7 28 -2.2 76 76 N N/A 30.15 1021 10 16 N/A
7:53 pm 19:53 Clear 34 1.1 28 -2.2 79 79 N N/A 30.15 1021 10 16 N/A
8:53 pm 20:53 Clear 37 2.8 28 -2.2 70 70 N N/A 30.15 1021 10 16 N/A
9:53 pm 21:53 Clear 30 -1.1 26 -3.3 85 85 N N/A 30.18 1022 10 16 N/A
10:53 pm 22:53 Clear 29 -1.7 27 -2.8 92 92 N N/A 30.19 1022 10 16 N/A
11:53 pm 23:53 Clear 26 -3.3 24 -4.4 92 92 N N/A 30.16 1022 9 14 N/A

Powered by AerisWeather